| time (UTC) | temp F | wind direction | speed MPH | gust MPH | rain 1hr in | rain 24hr in | rain mn in | humidity % | barometer mb |
| 20260506164522 | 89 | 34 | 12.0 | 19.0 | 0.00 | 0.00 | 0.00 | 25 | 1007.9 |
| 20260506164020 | 89 | 13 | 11.0 | 16.0 | 0.00 | 0.00 | 0.00 | 26 | 1007.9 |
| 20260506163523 | 89 | 333 | 7.0 | 18.0 | 0.00 | 0.00 | 0.00 | 28 | 1007.7 |
| 20260506163019 | 89 | 10 | 5.0 | 19.0 | 0.00 | 0.00 | 0.00 | 28 | 1007.5 |
| 20260506162518 | 88 | 327 | 12.0 | 19.0 | 0.00 | 0.00 | 0.00 | 29 | 1007.6 |
| 20260506162020 | 88 | 18 | 6.0 | 16.0 | 0.00 | 0.00 | 0.00 | 28 | 1007.5 |
| 20260506161521 | 88 | 22 | 11.0 | 19.0 | 0.00 | 0.00 | 0.00 | 28 | 1007.5 |
| 20260506161016 | 87 | 9 | 11.0 | 20.0 | 0.00 | 0.00 | 0.00 | 29 | 1007.6 |
| 20260506160516 | 87 | 24 | 13.0 | 20.0 | 0.00 | 0.00 | 0.00 | 31 | 1007.5 |
| 20260506160016 | 87 | 12.0 | 0.0 | 0.00 | 0.00 | 0.00 | 41 | 1007.4 | |
| 20260506154502 | 87 | 12 | 11.0 | 19.0 | 0.00 | 0.00 | 0.00 | 40 | 1007.3 |
| 20260506154001 | 87 | 21 | 14.0 | 19.0 | 0.00 | 0.00 | 0.00 | 43 | 1007.5 |
| 20260506153500 | 87 | 5 | 12.0 | 18.0 | 0.00 | 0.00 | 0.00 | 46 | 1007.4 |
| 20260506153100 | 87 | 30 | 11.0 | 16.0 | 0.00 | 0.00 | 0.00 | 51 | 1007.3 |
| 20260506152558 | 86 | 17 | 2.0 | 10.0 | 0.00 | 0.00 | 0.00 | 56 | 1007.3 |
| 20260506152059 | 85 | 7 | 1.0 | 9.0 | 0.00 | 0.00 | 0.00 | 59 | 1007.2 |
| 20260506151608 | 85 | 50 | 4.0 | 9.0 | 0.00 | 0.00 | 0.00 | 59 | 1007.2 |
| 20260506151056 | 85 | 7 | 2.0 | 8.0 | 0.00 | 0.00 | 0.00 | 60 | 1007.2 |
| 20260506150557 | 84 | 345 | 0.0 | 8.0 | 0.00 | 0.00 | 0.00 | 61 | 1007.2 |
| 20260506150053 | 82 | 0.0 | 0.0 | 0.00 | 0.00 | 0.00 | 63 | 1007.0 | |
| 20260506144529 | 82 | 108 | 2.0 | 4.0 | 0.00 | 0.00 | 0.00 | 63 | 1007.0 |
| 20260506144038 | 82 | 228 | 1.0 | 4.0 | 0.00 | 0.00 | 0.00 | 64 | 1006.8 |
| 20260506143528 | 82 | 193 | 2.0 | 7.0 | 0.00 | 0.00 | 0.00 | 64 | 1006.9 |
| 20260506143040 | 81 | 225 | 2.0 | 7.0 | 0.00 | 0.00 | 0.00 | 64 | 1006.9 |
| 20260506142525 | 81 | 185 | 1.0 | 6.0 | 0.00 | 0.00 | 0.00 | 64 | 1006.9 |
| 20260506142025 | 80 | 287 | 0.0 | 0.0 | 0.00 | 0.00 | 0.00 | 66 | 1006.9 |
| 20260506141525 | 79 | 291 | 0.0 | 6.0 | 0.00 | 0.00 | 0.00 | 64 | 1006.8 |
| 20260506141025 | 79 | 273 | 1.0 | 6.0 | 0.00 | 0.00 | 0.00 | 63 | 1006.8 |
| 20260506140525 | 78 | 252 | 2.0 | 7.0 | 0.00 | 0.00 | 0.00 | 64 | 1006.8 |
| 20260506140032 | 78 | 262 | 4.0 | 9.0 | 0.00 | 0.00 | 0.00 | 63 | 1006.9 |
| 20260506134537 | 78 | 297 | 5.0 | 9.0 | 0.00 | 0.00 | 0.00 | 61 | 1006.8 |
| 20260506134037 | 78 | 263 | 6.0 | 10.0 | 0.00 | 0.00 | 0.00 | 58 | 1006.7 |
| 20260506133539 | 78 | 264 | 6.0 | 10.0 | 0.00 | 0.00 | 0.00 | 59 | 1006.8 |
| 20260506133040 | 78 | 256 | 4.0 | 9.0 | 0.00 | 0.00 | 0.00 | 60 | 1006.5 |
| 20260506132536 | 77 | 287 | 2.0 | 9.0 | 0.00 | 0.00 | 0.00 | 59 | 1006.5 |
| 20260506132040 | 77 | 243 | 8.0 | 9.0 | 0.00 | 0.00 | 0.00 | 60 | 1006.6 |
| 20260506131536 | 76 | 275 | 3.0 | 7.0 | 0.00 | 0.00 | 0.00 | 61 | 1006.5 |
| 20260506131037 | 76 | 261 | 3.0 | 6.0 | 0.00 | 0.00 | 0.00 | 63 | 1006.4 |
| 20260506130534 | 76 | 271 | 4.0 | 7.0 | 0.00 | 0.00 | 0.00 | 61 | 1006.4 |
| 20260506130034 | 74 | 0.0 | 0.0 | 0.00 | 0.00 | 0.00 | 60 | 1006.3 | |
| 20260506124503 | 74 | 269 | 6.0 | 8.0 | 0.00 | 0.00 | 0.00 | 60 | 1006.2 |
| 20260506124003 | 74 | 260 | 6.0 | 9.0 | 0.00 | 0.00 | 0.00 | 59 | 1006.1 |
| 20260506123502 | 74 | 260 | 6.0 | 9.0 | 0.00 | 0.00 | 0.00 | 59 | 1005.8 |
| 20260506123101 | 74 | 261 | 7.0 | 9.0 | 0.00 | 0.00 | 0.00 | 57 | 1005.7 |
| 20260506122519 | 74 | 260 | 7.0 | 9.0 | 0.00 | 0.00 | 0.00 | 58 | 1005.7 |
| 20260506122059 | 74 | 261 | 7.0 | 9.0 | 0.00 | 0.00 | 0.00 | 57 | 1005.6 |
| 20260506121602 | 74 | 256 | 7.0 | 9.0 | 0.00 | 0.00 | 0.00 | 55 | 1005.6 |
| 20260506121058 | 74 | 266 | 7.0 | 8.0 | 0.00 | 0.00 | 0.00 | 55 | 1005.5 |
| 20260506120557 | 74 | 0.0 | 0.0 | 0.00 | 0.00 | 0.00 | 54 | 1005.5 | |
| 20260506120059 | 74 | 0.0 | 0.0 | 0.00 | 0.00 | 0.00 | 54 | 1005.3 | |
| 20260506114542 | 74 | 250 | 6.0 | 9.0 | 0.00 | 0.00 | 0.00 | 53 | 1005.2 |
| 20260506114040 | 74 | 265 | 6.0 | 7.0 | 0.00 | 0.00 | 0.00 | 54 | 1005.2 |
| 20260506113543 | 74 | 269 | 5.0 | 9.0 | 0.00 | 0.00 | 0.00 | 53 | 1005.0 |
| 20260506113040 | 74 | 272 | 5.0 | 9.0 | 0.00 | 0.00 | 0.00 | 52 | 1005.0 |
| 20260506112540 | 74 | 270 | 7.0 | 10.0 | 0.00 | 0.00 | 0.00 | 52 | 1005.1 |
| 20260506112039 | 74 | 266 | 8.0 | 11.0 | 0.00 | 0.00 | 0.00 | 52 | 1005.0 |
| 20260506111540 | 74 | 268 | 8.0 | 10.0 | 0.00 | 0.00 | 0.00 | 51 | 1005.0 |
| 20260506111038 | 74 | 263 | 8.0 | 10.0 | 0.00 | 0.00 | 0.00 | 51 | 1005.1 |
| 20260506110539 | 74 | 252 | 8.0 | 11.0 | 0.00 | 0.00 | 0.00 | 51 | 1005.0 |
| 20260506110041 | 75 | 0.0 | 0.0 | 0.00 | 0.00 | 0.00 | 52 | 1005.0 | |
| 20260506104504 | 75 | 250 | 4.0 | 10.0 | 0.00 | 0.00 | 0.00 | 52 | 1004.9 |
| 20260506104003 | 75 | 227 | 6.0 | 10.0 | 0.00 | 0.00 | 0.00 | 52 | 1004.9 |
| 20260506103503 | 75 | 223 | 6.0 | 9.0 | 0.00 | 0.00 | 0.00 | 52 | 1004.9 |
| 20260506103003 | 75 | 242 | 6.0 | 9.0 | 0.00 | 0.00 | 0.00 | 55 | 1004.9 |
| 20260506102502 | 75 | 246 | 4.0 | 8.0 | 0.00 | 0.00 | 0.00 | 61 | 1004.8 |
| 20260506102002 | 75 | 255 | 4.0 | 8.0 | 0.00 | 0.00 | 0.00 | 59 | 1004.8 |
| 20260506101606 | 75 | 250 | 6.0 | 9.0 | 0.00 | 0.00 | 0.00 | 57 | 1004.8 |
| 20260506101100 | 75 | 241 | 6.0 | 9.0 | 0.00 | 0.00 | 0.00 | 53 | 1004.7 |
| 20260506100559 | 75 | 235 | 6.0 | 8.0 | 0.00 | 0.00 | 0.00 | 54 | 1004.7 |
| 20260506100502 | 75 | 237 | 6.0 | 8.0 | 0.00 | 0.00 | 0.00 | 57 | 1004.7 |
| 20260506100058 | 75 | 0.0 | 0.0 | 0.00 | 0.00 | 0.00 | 58 | 1004.6 | |
| 20260506094526 | 75 | 252 | 3.0 | 5.0 | 0.00 | 0.00 | 0.00 | 58 | 1004.7 |
| 20260506094024 | 75 | 238 | 4.0 | 5.0 | 0.00 | 0.00 | 0.00 | 63 | 1004.7 |
| 20260506093523 | 75 | 300 | 0.0 | 4.0 | 0.00 | 0.00 | 0.00 | 64 | 1004.6 |
| 20260506093023 | 75 | 293 | 1.0 | 4.0 | 0.00 | 0.00 | 0.00 | 63 | 1004.7 |
| 20260506092522 | 75 | 274 | 2.0 | 5.0 | 0.00 | 0.00 | 0.00 | 62 | 1004.7 |
| 20260506092021 | 0 | 0.0 | 0.0 | 0.00 | 0.00 | 0.00 | 1004.8 | ||
| 20260506091521 | 0 | 0.0 | 0.0 | 0.00 | 0.00 | 0.00 | 1004.6 | ||
| 20260506091018 | 0 | 0.0 | 0.0 | 0.00 | 0.00 | 0.00 | 1004.7 | ||
| 20260506090517 | 0 | 0.0 | 0.0 | 0.00 | 0.00 | 0.00 | 1004.6 | ||
| 20260506090015 | 0 | 0.0 | 0.0 | 0.00 | 0.00 | 0.00 | 1004.7 | ||
| 20260506085617 | 0 | 0.0 | 0.0 | 0.00 | 0.00 | 0.00 | 1004.7 | ||
| 20260506084049 | 0 | 0.0 | 0.0 | 0.00 | 0.00 | 0.00 | 1004.6 | ||
| 20260506083548 | 0 | 0.0 | 0.0 | 0.00 | 0.00 | 0.00 | 1004.6 | ||
| 20260506083047 | 0 | 0.0 | 0.0 | 0.00 | 0.00 | 0.00 | 1004.7 | ||
| 20260506082547 | 0 | 0.0 | 0.0 | 0.00 | 0.00 | 0.00 | 1004.7 | ||
| 20260506082047 | 0 | 0.0 | 0.0 | 0.00 | 0.00 | 0.00 | 1004.7 | ||
| 20260506081542 | 0 | 0.0 | 0.0 | 0.00 | 0.00 | 0.00 | 1004.7 | ||
| 20260506081041 | 0 | 0.0 | 0.0 | 0.00 | 0.00 | 0.00 | 1004.8 | ||
| 20260506080539 | 0 | 0.0 | 0.0 | 0.00 | 0.00 | 0.00 | 1004.8 | ||
| 20260506073503 | 0 | 0.0 | 0.0 | 0.00 | 0.00 | 0.00 | 1004.9 | ||
| 20260506073002 | 0 | 0.0 | 0.0 | 0.00 | 0.00 | 0.00 | 1005.0 | ||
| 20260506072504 | 0 | 0.0 | 0.0 | 0.00 | 0.00 | 0.00 | 1005.0 | ||
| 20260506072100 | 0 | 0.0 | 0.0 | 0.00 | 0.00 | 0.00 | 1004.9 | ||
| 20260506071611 | 0 | 0.0 | 0.0 | 0.00 | 0.00 | 0.00 | 1004.6 | ||
| 20260506071059 | 0 | 0.0 | 0.0 | 0.00 | 0.00 | 0.00 | 1004.5 | ||
| 20260506070555 | 0 | 0.0 | 0.0 | 0.00 | 0.00 | 0.00 | 1004.6 | ||
| 20260506062030 | 0 | 0.0 | 0.0 | 0.00 | 0.00 | 0.00 | 1004.9 | ||
| 20260506061529 | 0 | 0.0 | 0.0 | 0.00 | 0.00 | 0.00 | 1004.9 | ||
| 20260506061027 | 0 | 0.0 | 0.0 | 0.00 | 0.00 | 0.00 | 1005.0 | ||
| 20260506060529 | 81 | 0.0 | 0.0 | 0.00 | 0.00 | 0.00 | 37 | 1005.0 | |
| 20260506051038 | 82 | 55 | 1.0 | 6.0 | 0.00 | 0.00 | 0.00 | 33 | 1005.2 |
| 20260506050537 | 82 | 56 | 1.0 | 6.0 | 0.00 | 0.00 | 0.00 | 29 | 1005.3 |
| 20260506044019 | 83 | 39 | 6.0 | 10.0 | 0.00 | 0.00 | 0.00 | 27 | 1005.2 |
| 20260506043512 | 83 | 40 | 5.0 | 9.0 | 0.00 | 0.00 | 0.00 | 24 | 1005.2 |
| 20260506043011 | 83 | 44 | 5.0 | 11.0 | 0.00 | 0.00 | 0.00 | 23 | 1005.1 |
| 20260506042511 | 83 | 30 | 6.0 | 11.0 | 0.00 | 0.00 | 0.00 | 23 | 1005.0 |
| 20260506042019 | 83 | 26 | 7.0 | 11.0 | 0.00 | 0.00 | 0.00 | 23 | 1005.1 |
| 20260506041524 | 83 | 16 | 7.0 | 11.0 | 0.00 | 0.00 | 0.00 | 23 | 1004.9 |
| 20260506041012 | 83 | 10 | 8.0 | 14.0 | 0.00 | 0.00 | 0.00 | 22 | 1004.9 |
| 20260506040612 | 83 | 13 | 9.0 | 14.0 | 0.00 | 0.00 | 0.00 | 22 | 1004.9 |
| 20260506040110 | 85 | 0.0 | 0.0 | 0.00 | 0.00 | 0.00 | 21 | 1004.8 | |
| 20260506034031 | 85 | 3 | 7.0 | 14.0 | 0.00 | 0.00 | 0.00 | 21 | 1004.8 |
| 20260506033527 | 85 | 11 | 10.0 | 14.0 | 0.00 | 0.00 | 0.00 | 20 | 1004.6 |
| 20260506033030 | 86 | 15 | 7.0 | 13.0 | 0.00 | 0.00 | 0.00 | 21 | 1004.5 |
| 20260506032527 | 86 | 37 | 6.0 | 14.0 | 0.00 | 0.00 | 0.00 | 20 | 1004.5 |
| 20260506032025 | 86 | 15 | 10.0 | 14.0 | 0.00 | 0.00 | 0.00 | 20 | 1004.5 |
| 20260506031527 | 86 | 22 | 10.0 | 15.0 | 0.00 | 0.00 | 0.00 | 20 | 1004.5 |
| 20260506031027 | 87 | 24 | 11.0 | 16.0 | 0.00 | 0.00 | 0.00 | 20 | 1004.5 |
| 20260506030525 | 87 | 21 | 10.0 | 17.0 | 0.00 | 0.00 | 0.00 | 20 | 1004.4 |
| 20260506030026 | 87 | 24 | 11.0 | 16.0 | 0.00 | 0.00 | 0.00 | 20 | 1004.4 |
| 20260506025624 | 88 | 27 | 12.0 | 15.0 | 0.00 | 0.00 | 0.00 | 19 | 1004.3 |
| 20260506024058 | 88 | 34 | 11.0 | 16.0 | 0.00 | 0.00 | 0.00 | 20 | 1004.0 |
| 20260506023556 | 88 | 29 | 11.0 | 19.0 | 0.00 | 0.00 | 0.00 | 21 | 1004.0 |
| 20260506023100 | 88 | 19 | 13.0 | 19.0 | 0.00 | 0.00 | 0.00 | 21 | 1003.9 |
| 20260506022556 | 89 | 27 | 14.0 | 19.0 | 0.00 | 0.00 | 0.00 | 21 | 1003.7 |
| 20260506022056 | 89 | 19 | 11.0 | 22.0 | 0.00 | 0.00 | 0.00 | 21 | 1003.8 |
| 20260506021558 | 89 | 38 | 13.0 | 22.0 | 0.00 | 0.00 | 0.00 | 21 | 1003.5 |
| 20260506021058 | 89 | 17 | 13.0 | 22.0 | 0.00 | 0.00 | 0.00 | 21 | 1003.2 |
| 20260506020555 | 89 | 11 | 13.0 | 21.0 | 0.00 | 0.00 | 0.00 | 22 | 1003.3 |
| 20260506020055 | 89 | 21 | 15.0 | 20.0 | 0.00 | 0.00 | 0.00 | 22 | 1003.2 |
| 20260506015655 | 90 | 58 | 9.0 | 21.0 | 0.00 | 0.00 | 0.00 | 21 | 1003.3 |
| 20260506014033 | 91 | 44 | 15.0 | 21.0 | 0.00 | 0.00 | 0.00 | 20 | 1003.3 |
| 20260506013534 | 91 | 42 | 6.0 | 11.0 | 0.00 | 0.00 | 0.00 | 24 | 1002.9 |
| 20260506013036 | 91 | 16 | 4.0 | 12.0 | 0.00 | 0.00 | 0.00 | 29 | 1002.7 |
| 20260506012532 | 92 | 117 | 6.0 | 12.0 | 0.00 | 0.00 | 0.00 | 28 | 1002.3 |
| 20260506012035 | 92 | 128 | 7.0 | 11.0 | 0.00 | 0.00 | 0.00 | 26 | 1002.1 |
| 20260506011538 | 93 | 122 | 4.0 | 9.0 | 0.00 | 0.00 | 0.00 | 24 | 1001.9 |
| 20260506011031 | 93 | 131 | 6.0 | 10.0 | 0.00 | 0.00 | 0.00 | 24 | 1001.7 |
| 20260506010532 | 93 | 142 | 6.0 | 10.0 | 0.00 | 0.00 | 0.00 | 23 | 1001.7 |
| 20260506010032 | 94 | 0.0 | 0.0 | 0.00 | 0.00 | 0.00 | 22 | 1001.5 | |
| 20260506005535 | 94 | 131 | 5.0 | 11.0 | 0.00 | 0.00 | 0.00 | 22 | 1001.4 |
| 20260506004010 | 94 | 152 | 5.0 | 11.0 | 0.00 | 0.00 | 0.00 | 22 | 1001.2 |
| 20260506003510 | 94 | 129 | 7.0 | 11.0 | 0.00 | 0.00 | 0.00 | 22 | 1001.2 |
| 20260506003010 | 94 | 122 | 7.0 | 11.0 | 0.00 | 0.00 | 0.00 | 22 | 1001.3 |
| 20260506002511 | 94 | 130 | 4.0 | 11.0 | 0.00 | 0.00 | 0.00 | 22 | 1001.2 |
| 20260506002009 | 94 | 135 | 7.0 | 11.0 | 0.00 | 0.00 | 0.00 | 22 | 1001.2 |
| 20260506001509 | 94 | 131 | 6.0 | 11.0 | 0.00 | 0.00 | 0.00 | 22 | 1001.2 |
| 20260506001009 | 95 | 135 | 8.0 | 12.0 | 0.00 | 0.00 | 0.00 | 22 | 1001.3 |
| 20260506000508 | 95 | 143 | 9.0 | 12.0 | 0.00 | 0.00 | 0.00 | 22 | 1001.2 |
| 20260505234001 | 96 | 140 | 8.0 | 13.0 | 0.00 | 0.00 | 0.00 | 22 | 1001.0 |
| 20260505233500 | 96 | 133 | 10.0 | 13.0 | 0.00 | 0.00 | 0.00 | 22 | 1001.0 |
| 20260505233104 | 96 | 148 | 8.0 | 14.0 | 0.00 | 0.00 | 0.00 | 22 | 1001.1 |
| 20260505232600 | 96 | 153 | 9.0 | 14.0 | 0.00 | 0.00 | 0.00 | 22 | 1001.1 |
| 20260505232059 | 96 | 129 | 9.0 | 13.0 | 0.00 | 0.00 | 0.00 | 22 | 1001.0 |
| 20260505231559 | 96 | 146 | 8.0 | 13.0 | 0.00 | 0.00 | 0.00 | 22 | 1001.1 |
| 20260505231058 | 96 | 116 | 6.0 | 16.0 | 0.00 | 0.00 | 0.00 | 21 | 1001.1 |
| 20260505230600 | 96 | 142 | 6.0 | 16.0 | 0.00 | 0.00 | 0.00 | 21 | 1001.2 |
| 20260505230116 | 97 | 0.0 | 0.0 | 0.00 | 0.00 | 0.00 | 21 | 1001.3 | |
| 20260505225656 | 97 | 171 | 5.0 | 13.0 | 0.00 | 0.00 | 0.00 | 21 | 1001.4 |
| 20260505224036 | 97 | 140 | 10.0 | 13.0 | 0.00 | 0.00 | 0.00 | 21 | 1001.5 |
| 20260505223538 | 97 | 90 | 7.0 | 11.0 | 0.00 | 0.00 | 0.00 | 21 | 1001.6 |
| 20260505223041 | 98 | 95 | 5.0 | 11.0 | 0.00 | 0.00 | 0.00 | 20 | 1001.6 |
| 20260505222534 | 98 | 138 | 3.0 | 8.0 | 0.00 | 0.00 | 0.00 | 20 | 1001.7 |
| 20260505222033 | 97 | 294 | 2.0 | 7.0 | 0.00 | 0.00 | 0.00 | 20 | 1001.5 |
| 20260505221531 | 97 | 181 | 4.0 | 10.0 | 0.00 | 0.00 | 0.00 | 20 | 1001.7 |
| 20260505221031 | 97 | 147 | 6.0 | 10.0 | 0.00 | 0.00 | 0.00 | 20 | 1001.6 |
| 20260505220530 | 97 | 127 | 5.0 | 10.0 | 0.00 | 0.00 | 0.00 | 21 | 1001.6 |
| 20260505220037 | 97 | 84 | 2.0 | 2.0 | 0.00 | 0.00 | 0.00 | 21 | 1001.8 |
| 20260505215628 | 97 | 131 | 6.0 | 11.0 | 0.00 | 0.00 | 0.00 | 21 | 1002.0 |
| 20260505214034 | 97 | 116 | 7.0 | 11.0 | 0.00 | 0.00 | 0.00 | 20 | 1002.2 |
| 20260505213533 | 97 | 148 | 2.0 | 8.0 | 0.00 | 0.00 | 0.00 | 21 | 1002.2 |
| 20260505213050 | 97 | 8 | 0.0 | 7.0 | 0.00 | 0.00 | 0.00 | 21 | 1002.3 |
| 20260505212532 | 97 | 40 | 3.0 | 8.0 | 0.00 | 0.00 | 0.00 | 21 | 1002.5 |
| 20260505212031 | 97 | 298 | 3.0 | 10.0 | 0.00 | 0.00 | 0.00 | 21 | 1002.6 |
| 20260505211531 | 97 | 300 | 3.0 | 10.0 | 0.00 | 0.00 | 0.00 | 21 | 1002.5 |
| 20260505211030 | 97 | 319 | 3.0 | 11.0 | 0.00 | 0.00 | 0.00 | 21 | 1002.9 |
| 20260505210528 | 97 | 27 | 4.0 | 11.0 | 0.00 | 0.00 | 0.00 | 21 | 1002.9 |
| 20260505210030 | 96 | 139 | 1.0 | 11.0 | 0.00 | 0.00 | 0.00 | 22 | 1003.0 |
| 20260505205626 | 96 | 118 | 3.0 | 10.0 | 0.00 | 0.00 | 0.00 | 21 | 1003.0 |
| 20260505204006 | 96 | 140 | 3.0 | 10.0 | 0.00 | 0.00 | 0.00 | 21 | 1003.4 |
| 20260505203505 | 96 | 165 | 3.0 | 12.0 | 0.00 | 0.00 | 0.00 | 21 | 1003.4 |
| 20260505203004 | 97 | 125 | 6.0 | 12.0 | 0.00 | 0.00 | 0.00 | 21 | 1003.6 |
| 20260505202503 | 96 | 120 | 2.0 | 14.0 | 0.00 | 0.00 | 0.00 | 21 | 1003.7 |
| 20260505202003 | 96 | 128 | 5.0 | 14.0 | 0.00 | 0.00 | 0.00 | 21 | 1003.7 |
| 20260505201501 | 95 | 211 | 3.0 | 9.0 | 0.00 | 0.00 | 0.00 | 22 | 1003.7 |
| 20260505201100 | 95 | 149 | 1.0 | 8.0 | 0.00 | 0.00 | 0.00 | 22 | 1003.8 |
| 20260505200600 | 95 | 40 | 4.0 | 11.0 | 0.00 | 0.00 | 0.00 | 22 | 1003.9 |
| 20260505200100 | 96 | 127 | 9.0 | 11.0 | 0.00 | 0.00 | 0.00 | 22 | 1004.0 |
| 20260505195558 | 95 | 79 | 1.0 | 10.0 | 0.00 | 0.00 | 0.00 | 22 | 1003.9 |
| 20260505194034 | 95 | 313 | 1.0 | 10.0 | 0.00 | 0.00 | 0.00 | 22 | 1004.0 |
| 20260505193534 | 95 | 16 | 3.0 | 10.0 | 0.00 | 0.00 | 0.00 | 23 | 1004.1 |
| 20260505193044 | 94 | 14 | 5.0 | 10.0 | 0.00 | 0.00 | 0.00 | 24 | 1004.2 |
| 20260505192531 | 94 | 148 | 3.0 | 9.0 | 0.00 | 0.00 | 0.00 | 24 | 1004.2 |
| 20260505192031 | 93 | 127 | 2.0 | 10.0 | 0.00 | 0.00 | 0.00 | 25 | 1004.2 |
| 20260505191531 | 93 | 356 | 7.0 | 10.0 | 0.00 | 0.00 | 0.00 | 25 | 1004.2 |
| 20260505191030 | 93 | 121 | 3.0 | 10.0 | 0.00 | 0.00 | 0.00 | 26 | 1004.2 |
| 20260505190529 | 94 | 52 | 4.0 | 10.0 | 0.00 | 0.00 | 0.00 | 25 | 1004.5 |
| 20260505190035 | 91 | 41 | 2.0 | 5.0 | 0.00 | 0.00 | 0.00 | 31 | 1004.7 |
| 20260505185627 | 91 | 349 | 4.0 | 11.0 | 0.00 | 0.00 | 0.00 | 31 | 1004.6 |
| 20260505184039 | 92 | 44 | 8.0 | 11.0 | 0.00 | 0.00 | 0.00 | 31 | 1004.9 |
| 20260505183542 | 91 | 34 | 2.0 | 8.0 | 0.00 | 0.00 | 0.00 | 32 | 1004.9 |
| 20260505183048 | 90 | 63 | 4.0 | 9.0 | 0.00 | 0.00 | 0.00 | 33 | 1005.0 |
| 20260505182537 | 90 | 123 | 5.0 | 9.0 | 0.00 | 0.00 | 0.00 | 36 | 1005.1 |
| 20260505182035 | 90 | 208 | 2.0 | 8.0 | 0.00 | 0.00 | 0.00 | 36 | 1005.2 |
| 20260505181534 | 90 | 141 | 4.0 | 9.0 | 0.00 | 0.00 | 0.00 | 36 | 1005.2 |
| 20260505181036 | 89 | 119 | 1.0 | 9.0 | 0.00 | 0.00 | 0.00 | 38 | 1005.4 |
| 20260505180535 | 89 | 123 | 5.0 | 9.0 | 0.00 | 0.00 | 0.00 | 39 | 1005.5 |
| 20260505180037 | 89 | 326 | 1.0 | 10.0 | 0.00 | 0.00 | 0.00 | 39 | 1005.7 |
| 20260505175533 | 87 | 33 | 4.0 | 9.0 | 0.00 | 0.00 | 0.00 | 43 | 1005.7 |
| 20260505174054 | 87 | 21 | 6.0 | 11.0 | 0.00 | 0.00 | 0.00 | 44 | 1005.9 |
| 20260505173553 | 87 | 138 | 2.0 | 11.0 | 0.00 | 0.00 | 0.00 | 44 | 1005.9 |
| 20260505173052 | 87 | 123 | 5.0 | 9.0 | 0.00 | 0.00 | 0.00 | 45 | 1006.0 |
| 20260505172550 | 85 | 133 | 3.0 | 10.0 | 0.00 | 0.00 | 0.00 | 47 | 1006.0 |
| 20260505172050 | 85 | 137 | 3.0 | 11.0 | 0.00 | 0.00 | 0.00 | 47 | 1006.0 |
| 20260505171549 | 85 | 126 | 7.0 | 11.0 | 0.00 | 0.00 | 0.00 | 49 | 1006.0 |
| 20260505171051 | 85 | 139 | 1.0 | 9.0 | 0.00 | 0.00 | 0.00 | 50 | 1006.0 |
| 20260505170550 | 84 | 95 | 3.0 | 11.0 | 0.00 | 0.00 | 0.00 | 51 | 1006.0 |
| 20260505170053 | 84 | 148 | 6.0 | 11.0 | 0.00 | 0.00 | 0.00 | 54 | 1006.0 |
| 20260505165545 | 83 | 31 | 0.0 | 6.0 | 0.00 | 0.00 | 0.00 | 54 | 1006.0 |